Location: �bnet
(46.9957°N, 8.4908°E)
Time: 14:11:03
(UTC+00:00)

Sich 1 - Pass Details

Date: 11 May 2021
Orbit: 595 x 624 km, 82.5° (Epoch: 17 June)

Event Time Altitude Azimuth Distance (km) Brightness Sun altitude
Rises 19:37:58 0° 350° (N) 2,868 7.3 -7.7°
Reaches altitude 10° 19:40:11 10° 350° (N) 1,964 6.4 -8.0°
Maximum altitude 19:44:32 86° 264° (W) 617 3.1 -8.6°
Drops below altitude 10° 19:48:54 10° 174° (S) 1,966 5.2 -9.2°
Enters shadow 19:50:17 - 174° (S) 2,529 5.8 -9.4°
